N156EW MUCL-KFLL

Flight info

Callsign N156EW
Flight time 0h 51m
Altitude 32000
Route VARCA4A XOPLI UG448 IKBIX BHHIA3
Aircraft A343/H-VGDW/C

Departure

Time 2026-05-04 01:15
Airport Vilo Acuña International Airport (MUCL)

Arrival

Time 2026-05-04 02:06
Airport Fort Lauderdale Hollywood International Airport (KFLL)
Time Latitude Longitude Altitude Speed Heading
2026-05-04 01:04 21.62175 -81.55237 21 ft 0 kts 295°
2026-05-04 01:12 21.62179 -81.55248 25 ft 6 kts 293°
2026-05-04 01:13 21.62187 -81.55324 28 ft 12 kts 269°
2026-05-04 01:13 21.62183 -81.55420 24 ft 13 kts 259°
2026-05-04 01:13 21.62124 -81.55485 28 ft 11 kts 208°
2026-05-04 01:13 21.62065 -81.55502 24 ft 8 kts 164°
2026-05-04 01:14 21.62042 -81.55473 25 ft 0 kts 115°
2026-05-04 01:14 21.62011 -81.55403 23 ft 39 kts 116°
2026-05-04 01:14 21.61775 -81.54896 28 ft 110 kts 116°
2026-05-04 01:14 21.61346 -81.53954 38 ft 168 kts 116°
2026-05-04 01:15 21.60909 -81.52758 663 ft 175 kts 105°
2026-05-04 01:15 21.61050 -81.51464 1249 ft 187 kts 61°
2026-05-04 01:15 21.62116 -81.50556 1624 ft 212 kts 17°
2026-05-04 01:15 21.63654 -81.50187 1930 ft 240 kts 13°
2026-05-04 01:16 21.65345 -81.49699 2404 ft 261 kts 17°
2026-05-04 01:16 21.67090 -81.49084 3096 ft 266 kts 18°
2026-05-04 01:16 21.68874 -81.48477 3818 ft 271 kts 17°
2026-05-04 01:16 21.70686 -81.47873 4552 ft 274 kts 17°
2026-05-04 01:17 21.72519 -81.47265 5285 ft 278 kts 17°
2026-05-04 01:17 21.74351 -81.46658 6001 ft 281 kts 17°
2026-05-04 01:17 21.76229 -81.46035 6719 ft 284 kts 17°
2026-05-04 01:17 21.78126 -81.45406 7408 ft 287 kts 17°
2026-05-04 01:18 21.80044 -81.44770 8132 ft 289 kts 17°
2026-05-04 01:18 21.81975 -81.44130 8847 ft 292 kts 17°
2026-05-04 01:18 21.83926 -81.43483 9565 ft 294 kts 17°
2026-05-04 01:18 21.85890 -81.42831 10254 ft 298 kts 16°
2026-05-04 01:19 21.87905 -81.42163 10556 ft 314 kts 16°
2026-05-04 01:19 21.90075 -81.41515 10833 ft 330 kts 11°
2026-05-04 01:19 21.92409 -81.41245 11089 ft 345 kts
2026-05-04 01:19 21.94826 -81.41193 11426 ft 359 kts 359°
2026-05-04 01:20 21.97351 -81.41170 12057 ft 366 kts 359°
2026-05-04 01:20 21.99916 -81.41144 12766 ft 371 kts 359°
2026-05-04 01:20 22.02516 -81.41113 13445 ft 377 kts 358°
2026-05-04 01:20 22.05157 -81.41078 14102 ft 382 kts 358°
2026-05-04 01:21 22.07824 -81.41042 14723 ft 385 kts 358°
2026-05-04 01:21 22.10516 -81.41004 15366 ft 388 kts 358°
2026-05-04 01:21 22.13230 -81.40966 16001 ft 392 kts 358°
2026-05-04 01:21 22.15932 -81.40928 16617 ft 395 kts 358°
2026-05-04 01:22 22.18688 -81.40888 17232 ft 398 kts 357°
2026-05-04 01:22 22.21468 -81.40849 17843 ft 401 kts 357°
2026-05-04 01:22 22.24272 -81.40809 18414 ft 405 kts 357°
2026-05-04 01:22 22.27107 -81.40768 18882 ft 409 kts 357°
2026-05-04 01:23 22.29966 -81.40727 19390 ft 412 kts 356°
2026-05-04 01:23 22.32836 -81.40686 19902 ft 414 kts 356°
2026-05-04 01:23 22.35727 -81.40644 20407 ft 417 kts 356°
2026-05-04 01:23 22.38595 -81.40603 20820 ft 417 kts 356°
2026-05-04 01:24 22.41485 -81.40560 20721 ft 416 kts 356°
2026-05-04 01:24 22.44404 -81.40519 20751 ft 422 kts 356°
2026-05-04 01:24 22.47349 -81.40477 21270 ft 424 kts 356°
2026-05-04 01:24 22.50298 -81.40434 21810 ft 425 kts 356°
2026-05-04 01:25 22.53261 -81.40392 22289 ft 427 kts 356°
2026-05-04 01:25 22.56239 -81.40349 22763 ft 429 kts 356°
2026-05-04 01:25 22.59239 -81.40307 23164 ft 433 kts 355°
2026-05-04 01:25 22.62224 -81.40264 23590 ft 436 kts 355°
2026-05-04 01:26 22.65269 -81.40144 23955 ft 440 kts 359°
2026-05-04 01:26 22.68337 -81.39865 24316 ft 444 kts
2026-05-04 01:26 22.71418 -81.39506 24661 ft 447 kts
2026-05-04 01:26 22.74517 -81.39107 25019 ft 449 kts
2026-05-04 01:27 22.77630 -81.38697 25355 ft 452 kts
2026-05-04 01:27 22.80756 -81.38287 25701 ft 454 kts
2026-05-04 01:27 22.83903 -81.37881 26045 ft 456 kts
2026-05-04 01:27 22.87017 -81.37486 26362 ft 458 kts
2026-05-04 01:28 22.90192 -81.37089 26671 ft 461 kts
2026-05-04 01:28 22.93396 -81.36693 26951 ft 464 kts
2026-05-04 01:28 22.96614 -81.36296 27271 ft 466 kts
2026-05-04 01:28 22.99848 -81.35896 27578 ft 469 kts
2026-05-04 01:29 23.03091 -81.35494 27890 ft 470 kts
2026-05-04 01:29 23.06349 -81.35089 28189 ft 472 kts
2026-05-04 01:29 23.09618 -81.34683 28477 ft 474 kts 360°
2026-05-04 01:29 23.12858 -81.34281 28756 ft 476 kts 360°
2026-05-04 01:30 23.16156 -81.33871 29036 ft 478 kts 360°
2026-05-04 01:30 23.19471 -81.33456 29325 ft 480 kts 360°
2026-05-04 01:30 23.22799 -81.33040 29512 ft 484 kts 359°
2026-05-04 01:30 23.26156 -81.32620 29759 ft 486 kts 359°
2026-05-04 01:31 23.29519 -81.32199 30042 ft 488 kts 359°
2026-05-04 01:31 23.32893 -81.31777 30270 ft 489 kts 359°
2026-05-04 01:31 23.36280 -81.31353 30484 ft 491 kts 359°
2026-05-04 01:31 23.39631 -81.30933 30708 ft 492 kts 359°
2026-05-04 01:32 23.43034 -81.30506 30919 ft 493 kts 359°
2026-05-04 01:32 23.46449 -81.30078 31133 ft 495 kts 359°
2026-05-04 01:32 23.49871 -81.29649 31401 ft 494 kts 359°
2026-05-04 01:32 23.53283 -81.29219 31733 ft 493 kts 360°
2026-05-04 01:33 23.56696 -81.28790 31976 ft 494 kts 360°
2026-05-04 01:33 23.63592 -81.27929 32023 ft 504 kts 360°
2026-05-04 01:34 23.70593 -81.27051 32032 ft 515 kts
2026-05-04 01:34 23.77749 -81.26147 32025 ft 518 kts
2026-05-04 01:35 23.84904 -81.25242 32021 ft 514 kts
2026-05-04 01:35 23.88402 -81.24795 32019 ft 498 kts
2026-05-04 01:35 23.91798 -81.24360 32020 ft 484 kts
2026-05-04 01:36 23.98373 -81.23532 32024 ft 478 kts 360°
2026-05-04 01:36 24.04967 -81.22653 31706 ft 475 kts
2026-05-04 01:36 24.08264 -81.22172 30853 ft 482 kts
2026-05-04 01:37 24.11617 -81.21685 29991 ft 490 kts
2026-05-04 01:37 24.15009 -81.21193 29117 ft 494 kts
2026-05-04 01:37 24.18424 -81.20698 28362 ft 496 kts
2026-05-04 01:37 24.21791 -81.20209 27806 ft 491 kts
2026-05-04 01:38 24.25108 -81.19723 27298 ft 471 kts
2026-05-04 01:38 24.28315 -81.19255 26812 ft 462 kts
2026-05-04 01:38 24.31497 -81.18798 26314 ft 460 kts
2026-05-04 01:38 24.34666 -81.18343 25829 ft 458 kts
2026-05-04 01:39 24.37822 -81.17890 25331 ft 457 kts
2026-05-04 01:39 24.40968 -81.17437 24843 ft 455 kts
2026-05-04 01:39 24.44098 -81.16985 24352 ft 453 kts
2026-05-04 01:39 24.47222 -81.16534 23862 ft 452 kts
2026-05-04 01:40 24.50296 -81.16090 23336 ft 451 kts
2026-05-04 01:40 24.53401 -81.15641 22810 ft 449 kts
2026-05-04 01:40 24.56484 -81.15197 22322 ft 445 kts
2026-05-04 01:40 24.59535 -81.15073 21820 ft 434 kts 349°
2026-05-04 01:41 24.62487 -81.15585 21360 ft 426 kts 343°
2026-05-04 01:41 24.65376 -81.16245 20896 ft 423 kts 342°
2026-05-04 01:41 24.68241 -81.16917 20437 ft 420 kts 342°
2026-05-04 01:41 24.71052 -81.17573 19985 ft 417 kts 343°
2026-05-04 01:42 24.73848 -81.18307 19723 ft 408 kts 340°
2026-05-04 01:42 24.76579 -81.19105 19478 ft 405 kts 339°
2026-05-04 01:42 24.79302 -81.19903 19210 ft 405 kts 340°
2026-05-04 01:42 24.82025 -81.20692 18950 ft 404 kts 340°
2026-05-04 01:43 24.84745 -81.21473 18685 ft 403 kts 340°
2026-05-04 01:43 24.87450 -81.22246 18411 ft 401 kts 340°
2026-05-04 01:43 24.90149 -81.23015 18133 ft 400 kts 340°
2026-05-04 01:43 24.92837 -81.23780 17865 ft 398 kts 340°
2026-05-04 01:44 24.95479 -81.24532 17569 ft 397 kts 340°
2026-05-04 01:44 24.98147 -81.25291 17307 ft 395 kts 340°
2026-05-04 01:44 25.00805 -81.26048 17046 ft 394 kts 340°
2026-05-04 01:44 25.03455 -81.26802 16792 ft 392 kts 340°
2026-05-04 01:45 25.06091 -81.27553 16550 ft 390 kts 340°
2026-05-04 01:45 25.08711 -81.28299 16322 ft 388 kts 340°
2026-05-04 01:45 25.13916 -81.29783 15924 ft 380 kts 340°
2026-05-04 01:46 25.16438 -81.30499 15806 ft 369 kts 340°
2026-05-04 01:46 25.18895 -81.31176 15668 ft 361 kts 342°
2026-05-04 01:46 25.21409 -81.31374 15426 ft 369 kts
2026-05-04 01:46 25.23862 -81.30562 15207 ft 380 kts 25°
2026-05-04 01:47 25.26038 -81.28878 14989 ft 384 kts 36°
2026-05-04 01:47 25.28082 -81.26992 14788 ft 382 kts 38°
2026-05-04 01:47 25.30109 -81.25097 14582 ft 382 kts 37°
2026-05-04 01:47 25.32133 -81.23217 14359 ft 379 kts 37°
2026-05-04 01:48 25.34156 -81.21350 14167 ft 378 kts 37°
2026-05-04 01:48 25.36166 -81.19499 13957 ft 374 kts 37°
2026-05-04 01:48 25.38162 -81.17664 13644 ft 373 kts 37°
2026-05-04 01:48 25.40133 -81.15855 13278 ft 372 kts 37°
2026-05-04 01:49 25.42120 -81.14031 12921 ft 370 kts 37°
2026-05-04 01:49 25.44096 -81.12217 12576 ft 368 kts 37°
2026-05-04 01:49 25.46059 -81.10415 12218 ft 365 kts 37°
2026-05-04 01:49 25.48002 -81.08629 11794 ft 362 kts 37°
2026-05-04 01:50 25.49930 -81.06858 11360 ft 359 kts 37°
2026-05-04 01:50 25.51834 -81.05107 10839 ft 353 kts 37°
2026-05-04 01:50 25.53714 -81.03378 10431 ft 349 kts 37°
2026-05-04 01:50 25.55526 -81.01710 10292 ft 339 kts 37°
2026-05-04 01:51 25.57317 -81.00060 10189 ft 331 kts 37°
2026-05-04 01:51 25.59066 -80.98450 10044 ft 323 kts 37°
2026-05-04 01:51 25.60781 -80.96891 9888 ft 316 kts 34°
2026-05-04 01:51 25.62682 -80.95775 9591 ft 306 kts 11°
2026-05-04 01:52 25.64750 -80.95418 9315 ft 299 kts
2026-05-04 01:52 25.66817 -80.95249 9001 ft 297 kts 360°
2026-05-04 01:52 25.68876 -80.95095 8734 ft 295 kts 360°
2026-05-04 01:52 25.70918 -80.94936 8445 ft 294 kts
2026-05-04 01:53 25.72949 -80.94774 8154 ft 292 kts
2026-05-04 01:53 25.74945 -80.94612 7854 ft 291 kts
2026-05-04 01:53 25.76963 -80.94446 7551 ft 290 kts
2026-05-04 01:53 25.78968 -80.94280 7276 ft 288 kts
2026-05-04 01:54 25.80965 -80.94120 6997 ft 287 kts
2026-05-04 01:54 25.82928 -80.93955 6934 ft 283 kts
2026-05-04 01:54 25.84907 -80.93790 6936 ft 286 kts
2026-05-04 01:54 25.86888 -80.93574 6930 ft 285 kts
2026-05-04 01:55 25.88771 -80.92847 6933 ft 291 kts 23°
2026-05-04 01:55 25.90565 -80.91788 6933 ft 293 kts 26°
2026-05-04 01:55 25.92309 -80.90703 6922 ft 290 kts 27°
2026-05-04 01:55 25.94079 -80.89602 6923 ft 293 kts 27°
2026-05-04 01:56 25.95858 -80.88502 6919 ft 291 kts 27°
2026-05-04 01:56 25.97623 -80.87414 6933 ft 292 kts 26°
2026-05-04 01:56 25.99379 -80.86317 6928 ft 287 kts 29°
2026-05-04 01:56 26.00906 -80.84858 6930 ft 294 kts 52°
2026-05-04 01:57 26.01771 -80.82803 6882 ft 296 kts 74°
2026-05-04 01:57 26.02247 -80.80577 6818 ft 297 kts 78°
2026-05-04 01:57 26.02673 -80.78338 6697 ft 295 kts 78°
2026-05-04 01:57 26.03101 -80.76108 6483 ft 295 kts 77°
2026-05-04 01:58 26.03531 -80.73921 6232 ft 292 kts 77°
2026-05-04 01:58 26.03970 -80.71724 6003 ft 290 kts 77°
2026-05-04 01:58 26.04414 -80.69550 5798 ft 286 kts 77°
2026-05-04 01:58 26.04859 -80.67415 5592 ft 281 kts 76°
2026-05-04 01:59 26.05274 -80.65320 5444 ft 274 kts 78°
2026-05-04 01:59 26.05653 -80.63266 5317 ft 270 kts 78°
2026-05-04 01:59 26.06112 -80.61230 5231 ft 272 kts 72°
2026-05-04 01:59 26.06695 -80.59234 5147 ft 271 kts 71°
2026-05-04 02:00 26.07281 -80.57241 5086 ft 271 kts 72°
2026-05-04 02:00 26.07771 -80.55217 5007 ft 271 kts 77°
2026-05-04 02:00 26.08030 -80.53174 4928 ft 271 kts 88°
2026-05-04 02:00 26.07994 -80.51077 4806 ft 272 kts 95°
2026-05-04 02:01 26.07848 -80.48974 4632 ft 274 kts 95°
2026-05-04 02:01 26.07763 -80.46836 4473 ft 279 kts 91°
2026-05-04 02:01 26.07788 -80.44666 4300 ft 283 kts 89°
2026-05-04 02:01 26.07852 -80.42508 4150 ft 275 kts 88°
2026-05-04 02:02 26.07919 -80.40403 3963 ft 270 kts 89°
2026-05-04 02:02 26.07903 -80.38318 3694 ft 270 kts 93°
2026-05-04 02:02 26.07824 -80.36229 3441 ft 271 kts 93°
2026-05-04 02:02 26.07752 -80.34157 3114 ft 272 kts 92°
2026-05-04 02:03 26.07711 -80.32041 2741 ft 273 kts 91°
2026-05-04 02:03 26.07717 -80.29960 2379 ft 262 kts 89°
2026-05-04 02:03 26.07756 -80.28007 2025 ft 242 kts 89°
2026-05-04 02:03 26.07753 -80.26211 1622 ft 223 kts 91°
2026-05-04 02:04 26.07712 -80.24575 1436 ft 200 kts 91°
2026-05-04 02:04 26.07702 -80.23099 1260 ft 184 kts 88°
2026-05-04 02:04 26.07733 -80.21725 996 ft 170 kts 87°
2026-05-04 02:04 26.07726 -80.20871 860 ft 166 kts 90°
2026-05-04 02:05 26.07689 -80.19609 599 ft 165 kts 89°
2026-05-04 02:05 26.07707 -80.18355 384 ft 160 kts 88°
2026-05-04 02:05 26.07693 -80.16717 103 ft 157 kts 88°
2026-05-04 02:05 26.07691 -80.15577 20 ft 127 kts 90°
2026-05-04 02:06 26.07685 -80.14917 26 ft 37 kts 90°
2026-05-04 02:06 26.07676 -80.14733 28 ft 35 kts 98°
2026-05-04 02:06 26.07630 -80.14618 28 ft 10 kts 143°
2026-05-04 02:06 26.07583 -80.14621 29 ft 5 kts 215°
2026-05-04 02:07 26.07568 -80.14651 29 ft 6 kts 251°
2026-05-04 02:07 26.07562 -80.14713 28 ft 9 kts 268°
2026-05-04 02:07 26.07562 -80.14807 27 ft 10 kts 270°
2026-05-04 02:07 26.07562 -80.14894 29 ft 12 kts 270°
2026-05-04 02:08 26.07562 -80.14960 28 ft 13 kts 270°
2026-05-04 02:08 26.07562 -80.15065 26 ft 14 kts 270°
2026-05-04 02:08 26.07563 -80.15176 25 ft 15 kts 271°
2026-05-04 02:08 26.07564 -80.15290 21 ft 15 kts 270°
2026-05-04 02:09 26.07564 -80.15403 21 ft 14 kts 270°
2026-05-04 02:09 26.07565 -80.15514 21 ft 14 kts 270°
2026-05-04 02:09 26.07564 -80.15619 22 ft 13 kts 270°
2026-05-04 02:09 26.07564 -80.15716 23 ft 12 kts 270°
2026-05-04 02:10 26.07541 -80.15788 29 ft 9 kts 208°
2026-05-04 02:10 26.07487 -80.15769 27 ft 9 kts 144°
2026-05-04 02:10 26.07443 -80.15722 27 ft 8 kts 136°
2026-05-04 02:10 26.07396 -80.15670 27 ft 11 kts 135°
2026-05-04 02:11 26.07349 -80.15637 25 ft 2 kts 197°
2026-05-04 02:11 26.07327 -80.15674 27 ft 9 kts 249°
2026-05-04 02:11 26.07337 -80.15710 30 ft 4 kts 317°
2026-05-04 02:11 26.07345 -80.15718 30 ft 0 kts 318°
2026-05-04 02:18 26.07345 -80.15717 30 ft 0 kts 318°